EventNavy

Jakarta

124,148 Data

[1101]  1win_gqPn  05/07 22:23  1  0

[1102]  1win_tgPl  05/07 22:22  1  0

[1103]  1win_anMt  05/07 22:16  1  0

[1104]  1xbet_twol  05/07 22:13  1  0

[1105]  1xbet_dool  05/07 22:11  0  0

[1106]  tolifedehumidifier 220  05/07 22:00  1  0

[1107]  tolifedehumidifier 893  05/07 22:00  1  0

[1108]  tolifedehumidifier 769  05/07 22:00  0  0

[1109]  Fobertkef-1  05/07 22:00  1  0

[1110]  FreddyNap  05/07 21:48  1  0

[1111]  Fobertkef-1  05/07 21:47  1  0

[1112]  1win_lzPl  05/07 21:36  0  0

[1113]  sweet-bonanza_zzMn  05/07 21:35  1  0

[1114]  1win_jwPn  05/07 21:35  1  0

[1115]  1win_vdPl  05/07 21:34  1  0

[1116]  sweet-bonanza_luMn  05/07 21:33  1  0

[1117]  Fobertkef-1  05/07 21:33  0  0

[1118]  1win_hxPn  05/07 21:32  0  0

[1119]  FreddyNap  05/07 21:31  0  0

[1120]  888starz uz_nsSt  05/07 21:27  0  0

[1121]  888starz uz_klSt  05/07 21:23  0  0

[1122]  Fobertkef-1  05/07 21:19  0  0

[1123]  Fobertkef-1  05/07 21:04  0  0

[1124]  Kixxbub  05/07 21:03  0  0

[1125]  Fobertkef-1  05/07 20:58  0  0

[1126]  Fobertkef-1  05/07 20:53  0  0

[1127]  Jeffreyreupe  05/07 20:52  0  0

[1128]  melbet_pdSn  05/07 20:50  0  0

[1129]  Fobertkef-1  05/07 20:47  0  0

[1130]  Kixxbub  05/07 20:47  0  0

[1131]  mostbet_hcsl  05/07 20:39  1  0

[1132]  Fobertkef-1  05/07 20:34  1  0

[1133]  Donaldbep  05/07 20:28  0  0

[1134]  1win_pgPt  05/07 20:27  0  0

[1135]  mostbet_evsl  05/07 20:20  1  0

[1136]  melbet_jhSn  05/07 20:19  1  0

[1137]  Fobertkef-1  05/07 20:18  1  0

[1138]  ksps_yzEr  05/07 20:17  0  0

[1139]  Woodrowseeva  05/07 20:04  0  0

[1140]  Woodrowseeva  05/07 20:04  1  0

[1141]  Woodrowseeva  05/07 20:02  1  0

[1142]  1win_jpPt  05/07 19:57  1  0

[1143]  JeffreyNeema  05/07 19:55  1  0

[1144]  Fobertkef-1  05/07 19:52  0  0

[1145]  Fobertkef-1  05/07 19:52  1  0

[1146]  Robertjer  05/07 19:51  1  0

[1147]  Robertjer  05/07 19:50  1  0

[1148]  Robertjer  05/07 19:49  1  0

[1149]  1win_vlMt  05/07 19:49  1  0

[1150]  Fobertkef-1  05/07 19:41  0  0

[1151]  FreddyNap  05/07 19:41  1  0

[1152]  порно  05/07 19:32  0  0

[1153]  Fobertkef-1  05/07 19:31  1  0

[1154]  mostbet_czsl  05/07 19:24  1  0

[1155]  FreddyNap  05/07 19:24  1  0

[1156]  sweet-bonanza_znMn  05/07 19:22  3  0

[1157]  1win_fzMt  05/07 19:22  3  0

[1158]  1win_bvPn  05/07 19:22  2  0

[1159]  1win_nkPl  05/07 19:22  3  0

[1160]  mostbet_assl  05/07 19:21  3  0

[1161]  Fobertkef-1  05/07 19:19  2  0

[1162]  fixchava  05/07 19:15  3  0

[1163]  Fobertkef-1  05/07 19:14  3  0

[1164]  Willisrob  05/07 19:12  1  0

[1165]  Fobertkef-1  05/07 19:09  3  0

[1166]  melbet_qfSn  05/07 19:09  3  0

[1167]  Fobertkef-1  05/07 19:03  3  0

[1168]  mostbet_lrsl  05/07 18:59  3  0

[1169]  Kixxbub  05/07 18:55  2  0

[1170]  Fobertkef-1  05/07 18:52  3  0

[1171]  Fobertkef-1  05/07 18:52  3  0

[1172]  melbet_xeSn  05/07 18:49  2  0

[1173]  Samuellaf  05/07 18:49  2  0

[1174]  1win_trPt  05/07 18:49  2  0

[1175]  Kixxbub  05/07 18:39  3  0

[1176]  Fobertkef-1  05/07 18:38  3  0

[1177]  melbet_hmSn  05/07 18:37  3  0

[1178]  sweet-bonanza_rgMn  05/07 18:31  2  0

[1179]  Fobertkef-1  05/07 18:30  3  0

[1180]  sweet-bonanza_ptMn  05/07 18:30  3  0

[1181]  1win_iuPn  05/07 18:29  3  0

[1182]  1win_loPl  05/07 18:29  3  0

[1183]  1win_idPt  05/07 18:29  3  0

[1184]  1win_wwPn  05/07 18:28  3  0

[1185]  1win_gtPl  05/07 18:28  3  0

[1186]  1win_gcMt  05/07 18:27  3  0

[1187]  Fobertkef-1  05/07 18:20  3  0

[1188]  1win_qyPt  05/07 18:16  3  0

[1189]  Fobertkef-1  05/07 18:14  3  0

[1190]  kypit bazy dannih_qzka  05/07 18:13  3  0

[1191]  Fobertkef-1  05/07 18:10  3  0

[1192]  Maryrom-1  05/07 18:06  3  0

[1193]  kypit bazy dannih_kxka  05/07 18:00  4  0

[1194]  mostbet_basl  05/07 17:57  3  0

[1195]  ThomasAlina  05/07 17:57  3  0

[1196]  ThomasAlina  05/07 17:56  3  0

[1197]  ThomasAlina  05/07 17:55  3  0

[1198]  Fobertkef-1  05/07 17:55  2  0

[1199]  1win_jlMt  05/07 17:53  3  0

[1200]  Fobertkef-1  05/07 17:51  3  0

Jakarta
Nama Tempat
Penjelasan